Year,Month,Day,Hour,Minute,Value (Times are PST for temperature in C)
2006,10,12,00,00,6.60
2006,10,12,00,01,6.60
2006,10,12,00,02,6.60
2006,10,12,00,03,6.60
2006,10,12,00,04,6.60
2006,10,12,00,05,6.60
2006,10,12,00,06,6.50
2006,10,12,00,07,6.50
2006,10,12,00,08,6.50
2006,10,12,00,09,6.50
2006,10,12,00,10,6.50
2006,10,12,00,11,6.50
2006,10,12,00,12,6.40
2006,10,12,00,13,6.40
2006,10,12,00,14,6.40
2006,10,12,00,15,6.40
2006,10,12,00,16,6.40
2006,10,12,00,17,6.40
2006,10,12,00,18,6.40
2006,10,12,00,19,6.40
2006,10,12,00,20,6.40
2006,10,12,00,21,6.40
2006,10,12,00,22,6.30
2006,10,12,00,23,6.30
2006,10,12,00,24,6.30
2006,10,12,00,25,6.30
2006,10,12,00,26,6.30
2006,10,12,00,27,6.30
2006,10,12,00,28,6.30
2006,10,12,00,29,6.30
2006,10,12,00,30,6.30
2006,10,12,00,31,6.20
2006,10,12,00,32,6.20
2006,10,12,00,33,6.20
2006,10,12,00,34,6.20
2006,10,12,00,35,6.20
2006,10,12,00,36,6.20
2006,10,12,00,37,6.20
2006,10,12,00,38,6.10
2006,10,12,00,39,6.10
2006,10,12,00,40,6.10
2006,10,12,00,41,6.10
2006,10,12,00,42,6.10
2006,10,12,00,43,6.10
2006,10,12,00,44,6.10
2006,10,12,00,45,6.00
2006,10,12,00,46,6.00
2006,10,12,00,47,6.00
2006,10,12,00,48,6.00
2006,10,12,00,49,6.00
2006,10,12,00,50,5.90
2006,10,12,00,51,5.90
2006,10,12,00,52,5.90
2006,10,12,00,53,5.90
2006,10,12,00,54,5.90
2006,10,12,00,55,5.90
2006,10,12,00,56,5.90
2006,10,12,00,57,5.90
2006,10,12,00,58,5.80
2006,10,12,00,59,5.80
2006,10,12,01,00,5.80
2006,10,12,01,01,5.80
2006,10,12,01,02,5.80
2006,10,12,01,03,5.80
2006,10,12,01,04,5.80
2006,10,12,01,05,5.80
2006,10,12,01,06,5.80
2006,10,12,01,07,5.80
2006,10,12,01,08,5.80
2006,10,12,01,09,5.70
2006,10,12,01,10,5.70
2006,10,12,01,11,5.70
2006,10,12,01,12,5.70
2006,10,12,01,13,5.70
2006,10,12,01,14,5.70
2006,10,12,01,15,5.70
2006,10,12,01,16,5.70
2006,10,12,01,17,5.70
2006,10,12,01,18,5.70
2006,10,12,01,19,5.70
2006,10,12,01,20,5.70
2006,10,12,01,21,5.70
2006,10,12,01,22,5.70
2006,10,12,01,23,5.70
2006,10,12,01,24,5.60
2006,10,12,01,25,5.60
2006,10,12,01,26,5.60
2006,10,12,01,27,5.60
2006,10,12,01,28,5.60
2006,10,12,01,29,5.60
2006,10,12,01,30,5.60
2006,10,12,01,31,5.60
2006,10,12,01,32,5.60
2006,10,12,01,33,5.60
2006,10,12,01,34,5.50
2006,10,12,01,35,5.50
2006,10,12,01,36,5.50
2006,10,12,01,37,5.50
2006,10,12,01,38,5.50
2006,10,12,01,39,5.50
2006,10,12,01,40,5.40
2006,10,12,01,41,5.40
2006,10,12,01,42,5.40
2006,10,12,01,43,5.40
2006,10,12,01,44,5.40
2006,10,12,01,45,5.40
2006,10,12,01,46,5.40
2006,10,12,01,47,5.40
2006,10,12,01,48,5.30
2006,10,12,01,49,5.30
2006,10,12,01,50,5.30
2006,10,12,01,51,5.30
2006,10,12,01,52,5.30
2006,10,12,01,53,5.30
2006,10,12,01,54,5.30
2006,10,12,01,55,5.30
2006,10,12,01,56,5.30
2006,10,12,01,57,5.30
2006,10,12,01,58,5.30
2006,10,12,01,59,5.30
2006,10,12,02,00,5.30
2006,10,12,02,01,5.20
2006,10,12,02,02,5.20
2006,10,12,02,03,5.20
2006,10,12,02,04,5.20
2006,10,12,02,05,5.20
2006,10,12,02,06,5.20
2006,10,12,02,07,5.20
2006,10,12,02,08,5.20
2006,10,12,02,09,5.20
2006,10,12,02,10,5.20
2006,10,12,02,11,5.20
2006,10,12,02,12,5.20
2006,10,12,02,13,5.10
2006,10,12,02,14,5.10
2006,10,12,02,15,5.10
2006,10,12,02,16,5.10
2006,10,12,02,17,5.10
2006,10,12,02,18,5.10
2006,10,12,02,19,5.10
2006,10,12,02,20,5.10
2006,10,12,02,21,5.10
2006,10,12,02,22,5.10
2006,10,12,02,23,5.10
2006,10,12,02,24,5.10
2006,10,12,02,25,5.00
2006,10,12,02,26,5.00
2006,10,12,02,27,5.00
2006,10,12,02,28,5.00
2006,10,12,02,29,5.00
2006,10,12,02,30,5.00
2006,10,12,02,31,5.00
2006,10,12,02,32,5.00
2006,10,12,02,33,4.90
2006,10,12,02,34,4.90
2006,10,12,02,35,4.90
2006,10,12,02,36,4.90
2006,10,12,02,37,4.90
2006,10,12,02,38,4.90
2006,10,12,02,39,4.90
2006,10,12,02,40,4.90
2006,10,12,02,41,4.90
2006,10,12,02,42,4.90
2006,10,12,02,43,4.90
2006,10,12,02,44,4.90
2006,10,12,02,45,4.90
2006,10,12,02,46,4.90
2006,10,12,02,47,4.80
2006,10,12,02,48,4.80
2006,10,12,02,49,4.80
2006,10,12,02,50,4.80
2006,10,12,02,51,4.80
2006,10,12,02,52,4.80
2006,10,12,02,53,4.80
2006,10,12,02,54,4.80
2006,10,12,02,55,4.80
2006,10,12,02,56,4.80
2006,10,12,02,57,4.80
2006,10,12,02,58,4.80
2006,10,12,02,59,4.80
2006,10,12,03,00,4.70
2006,10,12,03,01,4.70
2006,10,12,03,02,4.70
2006,10,12,03,03,4.70
2006,10,12,03,04,4.70
2006,10,12,03,05,4.70
2006,10,12,03,06,4.70
2006,10,12,03,07,4.70
2006,10,12,03,08,4.70
2006,10,12,03,09,4.70
2006,10,12,03,10,4.70
2006,10,12,03,11,4.70
2006,10,12,03,12,4.60
2006,10,12,03,13,4.60
2006,10,12,03,14,4.60
2006,10,12,03,15,4.60
2006,10,12,03,16,4.60
2006,10,12,03,17,4.60
2006,10,12,03,18,4.60
2006,10,12,03,19,4.60
2006,10,12,03,20,4.60
2006,10,12,03,21,4.60
2006,10,12,03,22,4.60
2006,10,12,03,23,4.60
2006,10,12,03,24,4.60
2006,10,12,03,25,4.60
2006,10,12,03,26,4.60
2006,10,12,03,27,4.60
2006,10,12,03,28,4.60
2006,10,12,03,29,4.60
2006,10,12,03,30,4.60
2006,10,12,03,31,4.60
2006,10,12,03,32,4.60
2006,10,12,03,33,4.60
2006,10,12,03,34,4.50
2006,10,12,03,35,4.50
2006,10,12,03,36,4.50
2006,10,12,03,37,4.50
2006,10,12,03,38,4.60
2006,10,12,03,39,4.60
2006,10,12,03,40,4.50
2006,10,12,03,41,4.50
2006,10,12,03,42,4.50
2006,10,12,03,43,4.50
2006,10,12,03,44,4.50
2006,10,12,03,45,4.50
2006,10,12,03,46,4.50
2006,10,12,03,47,4.50
2006,10,12,03,48,4.50
2006,10,12,03,49,4.50
2006,10,12,03,50,4.40
2006,10,12,03,51,4.40
2006,10,12,03,52,4.40
2006,10,12,03,53,4.40
2006,10,12,03,54,4.40
2006,10,12,03,55,4.40
2006,10,12,03,56,4.40
2006,10,12,03,57,4.40
2006,10,12,03,58,4.40
2006,10,12,03,59,4.40
2006,10,12,04,00,4.30
2006,10,12,04,01,4.30
2006,10,12,04,02,4.30
2006,10,12,04,03,4.30
2006,10,12,04,04,4.30
2006,10,12,04,05,4.30
2006,10,12,04,06,4.30
2006,10,12,04,07,4.30
2006,10,12,04,08,4.30
2006,10,12,04,09,4.30
2006,10,12,04,10,4.30
2006,10,12,04,11,4.30
2006,10,12,04,12,4.30
2006,10,12,04,13,4.30
2006,10,12,04,14,4.30
2006,10,12,04,15,4.30
2006,10,12,04,16,4.30
2006,10,12,04,17,4.30
2006,10,12,04,18,4.20
2006,10,12,04,19,4.20
2006,10,12,04,20,4.20
2006,10,12,04,21,4.20
2006,10,12,04,22,4.20
2006,10,12,04,23,4.20
2006,10,12,04,24,4.20
2006,10,12,04,25,4.20
2006,10,12,04,26,4.20
2006,10,12,04,27,4.20
2006,10,12,04,28,4.20
2006,10,12,04,29,4.20
2006,10,12,04,30,4.20
2006,10,12,04,31,4.20
2006,10,12,04,32,4.20
2006,10,12,04,33,4.20
2006,10,12,04,34,4.20
2006,10,12,04,35,4.20
2006,10,12,04,36,4.20
2006,10,12,04,37,4.20
2006,10,12,04,38,4.20
2006,10,12,04,39,4.20
2006,10,12,04,40,4.10
2006,10,12,04,41,4.10
2006,10,12,04,42,4.10
2006,10,12,04,43,4.10
2006,10,12,04,44,4.10
2006,10,12,04,45,4.10
2006,10,12,04,46,4.10
2006,10,12,04,47,4.10
2006,10,12,04,48,4.10
2006,10,12,04,49,4.10
2006,10,12,04,50,4.10
2006,10,12,04,51,4.10
2006,10,12,04,52,4.10
2006,10,12,04,53,4.10
2006,10,12,04,54,4.10
2006,10,12,04,55,4.00
2006,10,12,04,56,4.00
2006,10,12,04,57,4.00
2006,10,12,04,58,4.00
2006,10,12,04,59,4.00
2006,10,12,05,00,4.00
2006,10,12,05,01,3.90
2006,10,12,05,02,3.90
2006,10,12,05,03,3.90
2006,10,12,05,04,3.90
2006,10,12,05,05,3.90
2006,10,12,05,06,3.90
2006,10,12,05,07,3.90
2006,10,12,05,08,3.90
2006,10,12,05,09,3.90
2006,10,12,05,10,3.90
2006,10,12,05,11,3.90
2006,10,12,05,12,3.90
2006,10,12,05,13,3.80
2006,10,12,05,14,3.80
2006,10,12,05,15,3.80
2006,10,12,05,16,3.80
2006,10,12,05,17,3.80
2006,10,12,05,18,3.80
2006,10,12,05,19,3.80
2006,10,12,05,20,3.80
2006,10,12,05,21,3.80
2006,10,12,05,22,3.80
2006,10,12,05,23,3.80
2006,10,12,05,24,3.80
2006,10,12,05,25,3.80
2006,10,12,05,26,3.80
2006,10,12,05,27,3.80
2006,10,12,05,28,3.80
2006,10,12,05,29,3.80
2006,10,12,05,30,3.80
2006,10,12,05,31,3.80
2006,10,12,05,32,3.80
2006,10,12,05,33,3.80
2006,10,12,05,34,3.80
2006,10,12,05,35,3.80
2006,10,12,05,36,3.80
2006,10,12,05,37,3.80
2006,10,12,05,38,3.70
2006,10,12,05,39,3.70
2006,10,12,05,40,3.70
2006,10,12,05,41,3.70
2006,10,12,05,42,3.70
2006,10,12,05,43,3.70
2006,10,12,05,44,3.70
2006,10,12,05,45,3.70
2006,10,12,05,46,3.70
2006,10,12,05,47,3.70
2006,10,12,05,48,3.70
2006,10,12,05,49,3.60
2006,10,12,05,50,3.60
2006,10,12,05,51,3.60
2006,10,12,05,52,3.60
2006,10,12,05,53,3.60
2006,10,12,05,54,3.60
2006,10,12,05,55,3.60
2006,10,12,05,56,3.60
2006,10,12,05,57,3.60
2006,10,12,05,58,3.60
2006,10,12,05,59,3.60
2006,10,12,06,00,3.60
2006,10,12,06,01,3.60
2006,10,12,06,02,3.60
2006,10,12,06,03,3.60
2006,10,12,06,04,3.60
2006,10,12,06,05,3.60
2006,10,12,06,06,3.50
2006,10,12,06,07,3.50
2006,10,12,06,08,3.50
2006,10,12,06,09,3.50
2006,10,12,06,10,3.50
2006,10,12,06,11,3.50
2006,10,12,06,12,3.50
2006,10,12,06,13,3.50
2006,10,12,06,14,3.50
2006,10,12,06,15,3.50
2006,10,12,06,16,3.50
2006,10,12,06,17,3.50
2006,10,12,06,18,3.40
2006,10,12,06,19,3.40
2006,10,12,06,20,3.40
2006,10,12,06,21,3.40
2006,10,12,06,22,3.40
2006,10,12,06,23,3.40
2006,10,12,06,24,3.40
2006,10,12,06,25,3.40
2006,10,12,06,26,3.40
2006,10,12,06,27,3.40
2006,10,12,06,28,3.40
2006,10,12,06,29,3.40
2006,10,12,06,30,3.40
2006,10,12,06,31,3.40
2006,10,12,06,32,3.40
2006,10,12,06,33,3.40
2006,10,12,06,34,3.40
2006,10,12,06,35,3.40
2006,10,12,06,36,3.40
2006,10,12,06,37,3.30
2006,10,12,06,38,3.30
2006,10,12,06,39,3.30
2006,10,12,06,40,3.30
2006,10,12,06,41,3.30
2006,10,12,06,42,3.30
2006,10,12,06,43,3.30
2006,10,12,06,44,3.30
2006,10,12,06,45,3.30
2006,10,12,06,46,3.30
2006,10,12,06,47,3.30
2006,10,12,06,48,3.30
2006,10,12,06,49,3.30
2006,10,12,06,50,3.30
2006,10,12,06,51,3.30
2006,10,12,06,52,3.30
2006,10,12,06,53,3.30
2006,10,12,06,54,3.30
2006,10,12,06,55,3.30
2006,10,12,06,56,3.30
2006,10,12,06,57,3.30
2006,10,12,06,58,3.30
2006,10,12,06,59,3.30
2006,10,12,07,00,3.30
2006,10,12,07,01,3.30
2006,10,12,07,02,3.30
2006,10,12,07,03,3.30
2006,10,12,07,04,3.30
2006,10,12,07,05,3.30
2006,10,12,07,06,3.30
2006,10,12,07,07,3.30
2006,10,12,07,08,3.30
2006,10,12,07,09,3.30
2006,10,12,07,10,3.30
2006,10,12,07,11,3.30
2006,10,12,07,12,3.30
2006,10,12,07,13,3.30
2006,10,12,07,14,3.30
2006,10,12,07,15,3.30
2006,10,12,07,16,3.30
2006,10,12,07,17,3.30
2006,10,12,07,18,3.30
2006,10,12,07,19,3.30
2006,10,12,07,20,3.30
2006,10,12,07,21,3.30
2006,10,12,07,22,3.30
2006,10,12,07,23,3.30
2006,10,12,07,24,3.30
2006,10,12,07,25,3.30
2006,10,12,07,26,3.30
2006,10,12,07,27,3.30
2006,10,12,07,28,3.30
2006,10,12,07,29,3.30
2006,10,12,07,30,3.30
2006,10,12,07,31,3.30
2006,10,12,07,32,3.30
2006,10,12,07,33,3.30
2006,10,12,07,34,3.20
2006,10,12,07,35,3.20
2006,10,12,07,36,3.20
2006,10,12,07,37,3.20
2006,10,12,07,38,3.20
2006,10,12,07,39,3.20
2006,10,12,07,40,3.20
2006,10,12,07,41,3.20
2006,10,12,07,42,3.20
2006,10,12,07,43,3.20
2006,10,12,07,44,3.20
2006,10,12,07,45,3.20
2006,10,12,07,46,3.20
2006,10,12,07,47,3.20
2006,10,12,07,48,3.20
2006,10,12,07,49,3.20
2006,10,12,07,50,3.30
2006,10,12,07,51,3.30
2006,10,12,07,52,3.30
2006,10,12,07,53,3.30
2006,10,12,07,54,3.30
2006,10,12,07,55,3.30
2006,10,12,07,56,3.30
2006,10,12,07,57,3.30
2006,10,12,07,58,3.30
2006,10,12,07,59,3.30
2006,10,12,08,00,3.30
2006,10,12,08,01,3.30
2006,10,12,08,02,3.30
2006,10,12,08,03,3.30
2006,10,12,08,04,3.30
2006,10,12,08,05,3.30
2006,10,12,08,06,3.30
2006,10,12,08,07,3.40
2006,10,12,08,08,3.40
2006,10,12,08,09,3.40
2006,10,12,08,10,3.40
2006,10,12,08,11,3.40
2006,10,12,08,12,3.50
2006,10,12,08,13,3.50
2006,10,12,08,14,3.50
2006,10,12,08,15,3.50
2006,10,12,08,16,3.50
2006,10,12,08,17,3.60
2006,10,12,08,18,3.60
2006,10,12,08,19,3.60
2006,10,12,08,20,3.60
2006,10,12,08,21,3.60
2006,10,12,08,22,3.60
2006,10,12,08,23,3.60
2006,10,12,08,24,3.60
2006,10,12,08,25,3.70
2006,10,12,08,26,3.70
2006,10,12,08,27,3.70
2006,10,12,08,28,3.70
2006,10,12,08,29,3.70
2006,10,12,08,30,3.70
2006,10,12,08,31,3.70
2006,10,12,08,32,3.70
2006,10,12,08,33,3.80
2006,10,12,08,34,3.80
2006,10,12,08,35,3.80
2006,10,12,08,36,3.80
2006,10,12,08,37,3.80
2006,10,12,08,38,3.80
2006,10,12,08,39,3.90
2006,10,12,08,40,3.90
2006,10,12,08,41,3.90
2006,10,12,08,42,4.00
2006,10,12,08,43,4.00
2006,10,12,08,44,4.10
2006,10,12,08,45,4.10
2006,10,12,08,46,4.20
2006,10,12,08,47,4.30
2006,10,12,08,48,4.30
2006,10,12,08,49,4.40
2006,10,12,08,50,4.40
2006,10,12,08,51,4.50
2006,10,12,08,52,4.60
2006,10,12,08,53,4.60
2006,10,12,08,54,4.70
2006,10,12,08,55,4.70
2006,10,12,08,56,4.80
2006,10,12,08,57,4.80
2006,10,12,08,58,4.80
2006,10,12,08,59,4.90
2006,10,12,09,00,4.90
2006,10,12,09,01,5.00
2006,10,12,09,02,5.00
2006,10,12,09,03,5.10
2006,10,12,09,04,5.10
2006,10,12,09,05,5.20
2006,10,12,09,06,5.30
2006,10,12,09,07,5.40
2006,10,12,09,08,5.50
2006,10,12,09,09,5.70
2006,10,12,09,10,5.90
2006,10,12,09,11,6.10
2006,10,12,09,12,6.20
2006,10,12,09,13,6.40
2006,10,12,09,14,6.60
2006,10,12,09,15,6.70
2006,10,12,09,16,6.80
2006,10,12,09,17,6.90
2006,10,12,09,18,7.00
2006,10,12,09,19,7.20
2006,10,12,09,20,7.30
2006,10,12,09,21,7.40
2006,10,12,09,22,7.60
2006,10,12,09,23,7.70
2006,10,12,09,24,7.80
2006,10,12,09,25,7.90
2006,10,12,09,26,8.00
2006,10,12,09,27,8.10
2006,10,12,09,28,8.10
2006,10,12,09,29,8.20
2006,10,12,09,30,8.20
2006,10,12,09,31,8.30
2006,10,12,09,32,8.30
2006,10,12,09,33,8.40
2006,10,12,09,34,8.50
2006,10,12,09,35,8.60
2006,10,12,09,36,8.70
2006,10,12,09,37,8.80
2006,10,12,09,38,8.90
2006,10,12,09,39,9.00
2006,10,12,09,40,9.20
2006,10,12,09,41,9.30
2006,10,12,09,42,9.40
2006,10,12,09,43,9.60
2006,10,12,09,44,9.70
2006,10,12,09,45,9.80
2006,10,12,09,46,9.90
2006,10,12,09,47,10.00
2006,10,12,09,48,10.10
2006,10,12,09,49,10.20
2006,10,12,09,50,10.20
2006,10,12,09,51,10.30
2006,10,12,09,52,10.30
2006,10,12,09,53,10.40
2006,10,12,09,54,10.60
2006,10,12,09,55,10.60
2006,10,12,09,56,10.70
2006,10,12,09,57,10.90
2006,10,12,09,58,11.00
2006,10,12,09,59,11.20
2006,10,12,10,00,11.30
2006,10,12,10,01,11.40
2006,10,12,10,02,11.40
2006,10,12,10,03,11.50
2006,10,12,10,04,11.60
2006,10,12,10,05,11.70
2006,10,12,10,06,11.80
2006,10,12,10,07,11.90
2006,10,12,10,08,11.90
2006,10,12,10,09,12.00
2006,10,12,10,10,12.10
2006,10,12,10,11,12.20
2006,10,12,10,12,12.30
2006,10,12,10,13,12.30
2006,10,12,10,14,12.30
2006,10,12,10,15,12.30
2006,10,12,10,16,12.30
2006,10,12,10,17,12.30
2006,10,12,10,18,12.30
2006,10,12,10,19,12.30
2006,10,12,10,20,12.40
2006,10,12,10,21,12.40
2006,10,12,10,22,12.50
2006,10,12,10,23,12.60
2006,10,12,10,24,12.60
2006,10,12,10,25,12.70
2006,10,12,10,26,12.80
2006,10,12,10,27,12.90
2006,10,12,10,28,13.00
2006,10,12,10,29,13.10
2006,10,12,10,30,13.20
2006,10,12,10,31,13.40
2006,10,12,10,32,13.50
2006,10,12,10,33,13.60
2006,10,12,10,34,13.70
2006,10,12,10,35,13.80
2006,10,12,10,36,13.80
2006,10,12,10,37,13.90
2006,10,12,10,38,13.90
2006,10,12,10,39,14.00
2006,10,12,10,40,14.10
2006,10,12,10,41,14.20
2006,10,12,10,42,14.30
2006,10,12,10,43,14.40
2006,10,12,10,44,14.50
2006,10,12,10,45,14.60
2006,10,12,10,46,14.60
2006,10,12,10,47,14.60
2006,10,12,10,48,14.60
2006,10,12,10,49,14.70
2006,10,12,10,50,14.70
2006,10,12,10,51,14.80
2006,10,12,10,52,14.90
2006,10,12,10,53,15.00
2006,10,12,10,54,15.00
2006,10,12,10,55,15.00
2006,10,12,10,56,15.00
2006,10,12,10,57,15.00
2006,10,12,10,58,15.00
2006,10,12,10,59,15.10
2006,10,12,11,00,15.20
2006,10,12,11,01,15.20
2006,10,12,11,02,15.30
2006,10,12,11,03,15.30
2006,10,12,11,04,15.40
2006,10,12,11,05,15.40
2006,10,12,11,06,15.50
2006,10,12,11,07,15.60
2006,10,12,11,08,15.70
2006,10,12,11,09,15.70
2006,10,12,11,10,15.70
2006,10,12,11,11,15.80
2006,10,12,11,12,15.80
2006,10,12,11,13,15.90
2006,10,12,11,14,15.90
2006,10,12,11,15,16.00
2006,10,12,11,16,16.10
2006,10,12,11,17,16.20
2006,10,12,11,18,16.30
2006,10,12,11,19,16.30
2006,10,12,11,20,16.40
2006,10,12,11,21,16.40
2006,10,12,11,22,16.40
2006,10,12,11,23,16.30
2006,10,12,11,24,16.20
2006,10,12,11,25,16.10
2006,10,12,11,26,16.00
2006,10,12,11,27,16.00
2006,10,12,11,28,16.00
2006,10,12,11,29,16.00
2006,10,12,11,30,16.00
2006,10,12,11,31,16.10
2006,10,12,11,32,16.10
2006,10,12,11,33,16.20
2006,10,12,11,34,16.20
2006,10,12,11,35,16.30
2006,10,12,11,36,16.30
2006,10,12,11,37,16.20
2006,10,12,11,38,16.20
2006,10,12,11,39,16.10
2006,10,12,11,40,16.20
2006,10,12,11,41,16.20
2006,10,12,11,42,16.20
2006,10,12,11,43,16.20
2006,10,12,11,44,16.30
2006,10,12,11,45,16.30
2006,10,12,11,46,16.30
2006,10,12,11,47,16.40
2006,10,12,11,48,16.40
2006,10,12,11,49,16.30
2006,10,12,11,50,16.30
2006,10,12,11,51,16.30
2006,10,12,11,52,16.30
2006,10,12,11,53,16.40
2006,10,12,11,54,16.40
2006,10,12,11,55,16.40
2006,10,12,11,56,16.40
2006,10,12,11,57,16.40
2006,10,12,11,58,16.40
2006,10,12,11,59,16.40
2006,10,12,12,00,16.50
2006,10,12,12,01,16.50
2006,10,12,12,02,16.60
2006,10,12,12,03,16.60
2006,10,12,12,04,16.70
2006,10,12,12,05,16.70
2006,10,12,12,06,16.70
2006,10,12,12,07,16.80
2006,10,12,12,08,16.90
2006,10,12,12,09,17.00
2006,10,12,12,10,17.10
2006,10,12,12,11,17.20
2006,10,12,12,12,17.20
2006,10,12,12,13,17.20
2006,10,12,12,14,17.20
2006,10,12,12,15,17.20
2006,10,12,12,16,17.20
2006,10,12,12,17,17.30
2006,10,12,12,18,17.30
2006,10,12,12,19,17.30
2006,10,12,12,20,17.30
2006,10,12,12,21,17.30
2006,10,12,12,22,17.40
2006,10,12,12,23,17.40
2006,10,12,12,24,17.40
2006,10,12,12,25,17.50
2006,10,12,12,26,17.60
2006,10,12,12,27,17.70
2006,10,12,12,28,17.70
2006,10,12,12,29,17.60
2006,10,12,12,30,17.60
2006,10,12,12,31,17.60
2006,10,12,12,32,17.60
2006,10,12,12,33,17.70
2006,10,12,12,34,17.70
2006,10,12,12,35,17.80
2006,10,12,12,36,17.80
2006,10,12,12,37,17.80
2006,10,12,12,38,17.90
2006,10,12,12,39,18.00
2006,10,12,12,40,18.10
2006,10,12,12,41,18.10
2006,10,12,12,42,18.10
2006,10,12,12,43,18.10
2006,10,12,12,44,18.00
2006,10,12,12,45,18.00
2006,10,12,12,46,17.90
2006,10,12,12,47,17.90
2006,10,12,12,48,17.90
2006,10,12,12,49,17.90
2006,10,12,12,50,17.90
2006,10,12,12,51,18.00
2006,10,12,12,52,18.00
2006,10,12,12,53,18.00
2006,10,12,12,54,18.00
2006,10,12,12,55,18.00
2006,10,12,12,56,18.00
2006,10,12,12,57,18.10
2006,10,12,12,58,18.10
2006,10,12,12,59,18.20
2006,10,12,13,00,18.20
2006,10,12,13,03,18.50
2006,10,12,13,04,18.60
2006,10,12,13,05,18.70
2006,10,12,13,06,18.80
2006,10,12,13,07,18.90
2006,10,12,13,08,18.90
2006,10,12,13,09,18.90
2006,10,12,13,10,18.80
2006,10,12,13,11,18.70
2006,10,12,13,12,18.70
2006,10,12,13,13,18.60
2006,10,12,13,14,18.60
2006,10,12,13,15,18.60
2006,10,12,13,16,18.60
2006,10,12,13,17,18.60
2006,10,12,13,18,18.60
2006,10,12,13,19,18.60
2006,10,12,13,20,18.60
2006,10,12,13,21,18.60
2006,10,12,13,22,18.60
2006,10,12,13,23,18.60
2006,10,12,13,24,18.60
2006,10,12,13,25,18.60
2006,10,12,13,26,18.60
2006,10,12,13,27,18.70
2006,10,12,13,28,18.70
2006,10,12,13,29,18.70
2006,10,12,13,30,18.80
2006,10,12,13,31,18.80
2006,10,12,13,32,18.90
2006,10,12,13,33,18.90
2006,10,12,13,34,19.00
2006,10,12,13,35,19.10
2006,10,12,13,36,19.20
2006,10,12,13,37,19.20
2006,10,12,13,38,19.30
2006,10,12,13,39,19.30
2006,10,12,13,40,19.30
2006,10,12,13,41,19.30
2006,10,12,13,42,19.30
2006,10,12,13,43,19.40
2006,10,12,13,44,19.50
2006,10,12,13,45,19.50
2006,10,12,13,46,19.60
2006,10,12,13,47,19.60
2006,10,12,13,48,19.60
2006,10,12,13,49,19.60
2006,10,12,13,50,19.60
2006,10,12,13,51,19.60
2006,10,12,13,52,19.60
2006,10,12,13,53,19.60
2006,10,12,13,54,19.60
2006,10,12,13,55,19.70
2006,10,12,13,56,19.70
2006,10,12,13,57,19.70
2006,10,12,13,58,19.70
2006,10,12,13,59,19.70
2006,10,12,14,00,19.70
2006,10,12,14,01,19.80
2006,10,12,14,02,19.80
2006,10,12,14,03,19.80
2006,10,12,14,04,19.80
2006,10,12,14,05,19.80
2006,10,12,14,06,19.90
2006,10,12,14,07,19.90
2006,10,12,14,08,19.90
2006,10,12,14,09,19.90
2006,10,12,14,10,19.90
2006,10,12,14,11,19.90
2006,10,12,14,12,19.80
2006,10,12,14,13,19.80
2006,10,12,14,14,19.80
2006,10,12,14,15,19.80
2006,10,12,14,16,19.80
2006,10,12,14,17,19.80
2006,10,12,14,18,19.80
2006,10,12,14,19,19.80
2006,10,12,14,20,19.90
2006,10,12,14,21,19.90
2006,10,12,14,22,19.90
2006,10,12,14,23,19.90
2006,10,12,14,24,20.00
2006,10,12,14,25,20.00
2006,10,12,14,26,20.00
2006,10,12,14,27,20.00
2006,10,12,14,28,20.00
2006,10,12,14,29,20.00
2006,10,12,14,30,20.10
2006,10,12,14,31,20.10
2006,10,12,14,32,20.10
2006,10,12,14,33,20.20
2006,10,12,14,34,20.20
2006,10,12,14,35,20.20
2006,10,12,14,36,20.20
2006,10,12,14,37,20.10
2006,10,12,14,38,20.10
2006,10,12,14,39,20.00
2006,10,12,14,40,20.00
2006,10,12,14,41,20.00
2006,10,12,14,42,20.00
2006,10,12,14,43,20.00
2006,10,12,14,44,20.00
2006,10,12,14,45,20.00
2006,10,12,14,46,20.00
2006,10,12,14,47,20.00
2006,10,12,14,48,19.90
2006,10,12,14,49,19.90
2006,10,12,14,50,19.90
2006,10,12,14,51,19.90
2006,10,12,14,52,20.00
2006,10,12,14,53,20.00
2006,10,12,14,54,20.10
2006,10,12,14,55,20.20
2006,10,12,14,56,20.30
2006,10,12,14,57,20.40
2006,10,12,14,58,20.40
2006,10,12,14,59,20.40
2006,10,12,15,00,20.40
2006,10,12,15,01,20.40
2006,10,12,15,02,20.40
2006,10,12,15,03,20.40
2006,10,12,15,04,20.30
2006,10,12,15,05,20.30
2006,10,12,15,06,20.30
2006,10,12,15,07,20.20
2006,10,12,15,08,20.20
2006,10,12,15,09,20.20
2006,10,12,15,10,20.20
2006,10,12,15,11,20.20
2006,10,12,15,12,20.30
2006,10,12,15,13,20.30
2006,10,12,15,14,20.30
2006,10,12,15,15,20.30
2006,10,12,15,16,20.30
2006,10,12,15,17,20.30
2006,10,12,15,18,20.30
2006,10,12,15,19,20.30
2006,10,12,15,20,20.30
2006,10,12,15,21,20.30
2006,10,12,15,22,20.30
2006,10,12,15,23,20.30
2006,10,12,15,24,20.30
2006,10,12,15,25,20.30
2006,10,12,15,26,20.40
2006,10,12,15,27,20.40
2006,10,12,15,28,20.40
2006,10,12,15,29,20.40
2006,10,12,15,30,20.40
2006,10,12,15,31,20.40
2006,10,12,15,32,20.40
2006,10,12,15,33,20.40
2006,10,12,15,34,20.40
2006,10,12,15,35,20.40
2006,10,12,15,36,20.30
2006,10,12,15,37,20.30
2006,10,12,15,38,20.30
2006,10,12,15,39,20.30
2006,10,12,15,40,20.30
2006,10,12,15,41,20.30
2006,10,12,15,42,20.30
2006,10,12,15,43,20.20
2006,10,12,15,44,20.20
2006,10,12,15,45,20.20
2006,10,12,15,46,20.20
2006,10,12,15,47,20.20
2006,10,12,15,48,20.20
2006,10,12,15,49,20.20
2006,10,12,15,50,20.20
2006,10,12,15,51,20.30
2006,10,12,15,52,20.30
2006,10,12,15,53,20.30
2006,10,12,15,54,20.30
2006,10,12,15,55,20.30
2006,10,12,15,56,20.30
2006,10,12,15,57,20.30
2006,10,12,15,58,20.30
2006,10,12,15,59,20.30
2006,10,12,16,00,20.30
2006,10,12,16,01,20.30
2006,10,12,16,02,20.40
2006,10,12,16,03,20.40
2006,10,12,16,04,20.40
2006,10,12,16,05,20.40
2006,10,12,16,06,20.30
2006,10,12,16,07,20.30
2006,10,12,16,08,20.30
2006,10,12,16,09,20.30
2006,10,12,16,10,20.30
2006,10,12,16,11,20.20
2006,10,12,16,12,20.20
2006,10,12,16,13,20.20
2006,10,12,16,14,20.20
2006,10,12,16,15,20.10
2006,10,12,16,16,20.10
2006,10,12,16,17,20.10
2006,10,12,16,18,20.10
2006,10,12,16,19,20.10
2006,10,12,16,20,20.10
2006,10,12,16,21,20.10
2006,10,12,16,22,20.10
2006,10,12,16,23,20.10
2006,10,12,16,24,20.10
2006,10,12,16,25,20.20
2006,10,12,16,26,20.20
2006,10,12,16,27,20.20
2006,10,12,16,28,20.20
2006,10,12,16,29,20.20
2006,10,12,16,30,20.20
2006,10,12,16,31,20.20
2006,10,12,16,32,20.10
2006,10,12,16,33,20.10
2006,10,12,16,34,20.10
2006,10,12,16,35,20.10
2006,10,12,16,36,20.10
2006,10,12,16,37,20.10
2006,10,12,16,38,20.00
2006,10,12,16,39,20.00
2006,10,12,16,40,20.00
2006,10,12,16,41,20.00
2006,10,12,16,42,20.00
2006,10,12,16,43,20.10
2006,10,12,16,44,20.10
2006,10,12,16,45,20.00
2006,10,12,16,46,20.00
2006,10,12,16,47,20.00
2006,10,12,16,48,19.90
2006,10,12,16,49,19.90
2006,10,12,16,50,19.90
2006,10,12,16,51,19.90
2006,10,12,16,52,19.90
2006,10,12,16,53,19.80
2006,10,12,16,54,19.80
2006,10,12,16,55,19.80
2006,10,12,16,56,19.70
2006,10,12,16,57,19.60
2006,10,12,16,58,19.60
2006,10,12,16,59,19.60
2006,10,12,17,00,19.50
2006,10,12,17,01,19.50
2006,10,12,17,02,19.40
2006,10,12,17,03,19.40
2006,10,12,17,04,19.30
2006,10,12,17,05,19.30
2006,10,12,17,06,19.30
2006,10,12,17,07,19.30
2006,10,12,17,08,19.20
2006,10,12,17,09,19.20
2006,10,12,17,10,19.10
2006,10,12,17,11,19.10
2006,10,12,17,12,19.00
2006,10,12,17,13,19.00
2006,10,12,17,14,18.90
2006,10,12,17,15,18.90
2006,10,12,17,16,18.90
2006,10,12,17,17,18.80
2006,10,12,17,18,18.80
2006,10,12,17,19,18.70
2006,10,12,17,20,18.70
2006,10,12,17,21,18.70
2006,10,12,17,22,18.60
2006,10,12,17,23,18.60
2006,10,12,17,24,18.50
2006,10,12,17,25,18.50
2006,10,12,17,26,18.50
2006,10,12,17,27,18.50
2006,10,12,17,28,18.40
2006,10,12,17,29,18.40
2006,10,12,17,30,18.30
2006,10,12,17,31,18.30
2006,10,12,17,32,18.30
2006,10,12,17,33,18.20
2006,10,12,17,34,18.20
2006,10,12,17,35,18.20
2006,10,12,17,36,18.20
2006,10,12,17,37,18.20
2006,10,12,17,38,18.10
2006,10,12,17,39,18.10
2006,10,12,17,40,18.00
2006,10,12,17,41,18.00
2006,10,12,17,42,18.00
2006,10,12,17,43,17.90
2006,10,12,17,44,17.90
2006,10,12,17,45,17.90
2006,10,12,17,46,17.90